Location: Dover
(39.1580°N, 75.5250°W)
Time: 13:41:26
(UTC-05:00)

SeaSat 1 - Visible Passes

Search period start: 23 February 2018 00:00
Search period end: 05 March 2018 00:00
Orbit: 745 x 747 km, 108.0° (Epoch: 22 February)

Date Brightness Start Highest point End Pass type
(mag) Time Alt. Az. Time Alt. Az. Time Alt. Az.
23 Feb 2.9 19:07:33 25° ESE 19:09:53 40° ENE 19:14:29 10° N visible
23 Feb 4.3 20:47:22 25° WSW 20:47:28 25° WSW 20:51:32 10° NW visible
24 Feb 4.0 18:25:08 10° E 18:28:16 17° NE 18:31:24 10° N visible
24 Feb 2.6 20:04:38 62° SSW 20:05:16 70° WSW 20:10:12 10° NNW visible
25 Feb 2.8 19:21:53 35° E 19:23:19 44° ENE 19:28:00 10° NNW visible
25 Feb 4.6 21:01:41 22° W 21:01:41 22° W 21:04:50 10° NW visible
26 Feb 3.9 18:39:06 13° E 18:41:40 19° NE 18:45:01 10° N visible
26 Feb 2.8 20:18:54 63° W 20:18:54 63° W 20:23:37 10° NNW visible
27 Feb 2.6 19:36:05 45° E 19:36:45 48° ENE 19:41:29 10° NNW visible
27 Feb 4.9 21:15:54 18° W 21:15:54 18° W 21:18:07 10° WNW visible
28 Feb 3.8 18:53:16 17° E 18:55:03 20° NE 18:58:36 10° N visible
28 Feb 3.2 20:33:04 49° WNW 20:33:04 49° WNW 20:37:03 10° NW visible
01 Mar 2.6 19:50:13 53° ENE 19:50:13 53° ENE 19:54:59 10° NNW visible
01 Mar 5.1 21:30:00 15° WNW 21:30:00 15° WNW 21:31:22 10° WNW visible
02 Mar 3.7 19:07:20 20° ENE 19:08:27 22° NE 19:12:11 10° N visible
02 Mar 3.7 20:47:08 38° WNW 20:47:08 38° WNW 20:50:27 10° NW visible
03 Mar 2.7 20:04:15 54° NNE 20:04:15 54° NNE 20:08:27 10° NNW visible
03 Mar 5.4 21:44:03 12° WNW 21:44:03 12° WNW 21:44:35 10° WNW visible
04 Mar 3.6 19:21:21 23° ENE 19:21:52 24° NE 19:25:45 10° N visible
04 Mar 4.2 21:01:09 30° WNW 21:01:09 30° WNW 21:03:51 10° NW visible
